Ukiah, CA

11:58 PM PST on January 18, 2017 (GMT -0800)
Ukiah Municipal

Weather History for KUKI - November, 2011

Change the Weather History Date:

Friday, November 18, 2011

  Actual Average Record
Temperature  
Mean Temperature 45 °F 50 °F  
Max Temperature 51 °F 62 °F 88 °F (1932)
Min Temperature 39 °F 39 °F 20 °F (1921)
Degree Days  
Heating Degree Days 20 15  
Month to date heating degree days 279 222  
Since 1 July heating degree days 394 422  
Cooling Degree Days 0 0  
Month to date cooling degree days 0 0  
Year to date cooling degree days 895 835  
Moisture  
Dew Point 43 °F    
Average Humidity 88    
Maximum Humidity 100    
Minimum Humidity 76    
Precipitation  
Precipitation 0.32 in 0.16 in 3.85 in (1920)
Month to date precipitation 1.17 2.28  
Year to date precipitation 26.82 28.41  
Since 1 July precipitation 4.78  
Snow  
Snow 0.00 in - - ()
Month to date snowfall 0.0  
Since 1 July snowfall 0.0  
Since 1 September snowfall 0.0  
Snow Depth 0.00 in    
Sea Level Pressure  
Sea Level Pressure 29.96 in    
Wind  
Wind Speed 2 mph (NNE)    
Max Wind Speed 9 mph    
Max Gust Speed 17 mph    
Visibility 8 miles    
Events Rain    
T = Trace of Precipitation, MM = Missing Value Source: NWS Daily Summary

Daily Weather History Graph

Daily Weather History Graph

Search for Another Location

Airport or City:

Trip Planner

Search our weather history database for the weather conditions in past years. The results will help you decide how hot, cold, wet, or windy it might be!

Date:

Astronomy

Nov. 18, 2011 Rise Set
Actual Time 6:59 AM PST 4:56 PM PST
Civil Twilight 6:30 AM PST 5:25 PM PST
Nautical Twilight 5:57 AM PST 5:57 PM PST
Astronomical Twilight 5:26 AM PST 6:29 PM PST
Moon No Moon Rise 12:42 PM PST (11/18)
Length of Visible Light 10h 54m
Length of Day
9h 57m
Waning Gibbous, 48% of the Moon is Illuminated
Nov 18
Waning Gibbous
Nov 24
New
Dec 2
First Quarter
Dec 10
Full
Dec 17
Last Quarter

Hourly Weather History & Observations

Time (PST) Temp. Windchill Dew Point Humidity Pressure Visibility Wind Dir Wind Speed Gust Speed Precip Events Conditions
12:56 AM 46.0 °F - 45.0 °F 96% 30.04 in 10.0 mi Calm Calm - N/A   Overcast
1:56 AM 46.4 °F - 44.6 °F 93% 30.03 in 7.0 mi Calm Calm - N/A   Overcast
2:56 AM 46.0 °F - 45.0 °F 96% 30.02 in 6.0 mi Calm Calm - 0.01 in Rain Light Rain
3:23 AM 46.4 °F - 44.6 °F 93% 30.02 in 10.0 mi Calm Calm - 0.00 in   Overcast
3:35 AM 46.4 °F 45.2 °F 44.6 °F 93% 30.01 in 10.0 mi NW 3.5 mph - 0.00 in   Overcast
3:43 AM 46.4 °F - 44.6 °F 93% 30.01 in 10.0 mi Calm Calm - 0.00 in   Overcast
3:56 AM 46.0 °F - 45.0 °F 96% 30.00 in 10.0 mi Calm Calm - 0.00 in   Overcast
4:56 AM 46.0 °F - 45.0 °F 96% 29.99 in 6.0 mi Calm Calm - 0.05 in Rain Light Rain
5:18 AM 44.6 °F - 44.6 °F 100% 29.99 in 6.0 mi Calm Calm - 0.00 in   Overcast
5:56 AM 45.0 °F - 44.1 °F 97% 29.97 in 7.0 mi Calm Calm - 0.00 in   Overcast
6:56 AM 45.0 °F - 45.0 °F 100% 29.96 in 5.0 mi Calm Calm - 0.02 in Rain Light Rain
7:05 AM 44.6 °F - 44.6 °F 100% 29.97 in 6.0 mi Calm Calm - 0.01 in Rain Light Rain
7:15 AM 44.6 °F 43.1 °F 44.6 °F 100% 29.97 in 5.0 mi SSE 3.5 mph - 0.02 in Rain Rain
7:35 AM 44.6 °F - 44.6 °F 100% 29.98 in 4.0 mi Calm Calm - 0.03 in Rain Light Rain
7:56 AM 46.0 °F 44.8 °F 44.1 °F 93% 29.97 in 10.0 mi South 3.5 mph - 0.03 in   Mostly Cloudy
8:10 AM 46.4 °F 45.2 °F 44.6 °F 93% 29.96 in 10.0 mi ESE 3.5 mph - N/A   Mostly Cloudy
8:56 AM 48.0 °F - 44.1 °F 86% 29.96 in 10.0 mi Calm Calm - 0.02 in Rain Light Rain
9:12 AM 48.2 °F - 44.6 °F 87% 29.96 in 10.0 mi Calm Calm - 0.00 in   Overcast
9:56 AM 48.0 °F - 45.0 °F 89% 29.95 in 8.0 mi Calm Calm - 0.01 in Rain Light Rain
10:03 AM 48.2 °F - 46.4 °F 93% 29.95 in 9.0 mi SSE 3.5 mph - 0.00 in Rain Light Rain
10:56 AM 48.9 °F - 46.9 °F 93% 29.94 in 6.0 mi East 3.5 mph - 0.03 in Rain Light Rain
11:20 AM 48.2 °F - 46.4 °F 93% 29.94 in 3.0 mi East 4.6 mph - 0.05 in Rain Light Rain
11:27 AM 48.2 °F - 46.4 °F 93% 29.94 in 7.0 mi Calm Calm - 0.05 in Rain Light Rain
11:37 AM 50.0 °F - 44.6 °F 82% 29.93 in 10.0 mi Calm Calm - 0.05 in   Overcast
11:56 AM 50.0 °F - 46.0 °F 86% 29.92 in 10.0 mi SE 3.5 mph - 0.05 in Rain Light Rain
12:52 PM 51.8 °F - 42.8 °F 71% 29.91 in 10.0 mi Variable 3.5 mph - N/A   Overcast
12:56 PM 51.1 °F - 43.0 °F 74% 29.90 in 9.0 mi North 8.1 mph - 0.02 in Rain Light Rain
1:21 PM 51.8 °F - 42.8 °F 71% 29.90 in 10.0 mi North 5.8 mph - 0.01 in   Overcast
1:56 PM 48.0 °F - 42.1 °F 80% 29.90 in 7.0 mi WNW 9.2 mph - 0.04 in Rain Light Rain
2:56 PM 48.0 °F - 42.1 °F 80% 29.91 in 5.0 mi NW 12.7 mph 17.3 mph 0.02 in Rain Rain
3:56 PM 48.0 °F - 41.0 °F 77% 29.89 in 10.0 mi Variable 4.6 mph - 0.00 in   Mostly Cloudy
4:56 PM 46.0 °F 43.9 °F 42.1 °F 86% 29.90 in 10.0 mi NNW 4.6 mph - 0.02 in   Overcast
5:56 PM 44.1 °F 41.5 °F 37.9 °F 79% 29.91 in 10.0 mi NNW 4.6 mph - N/A   Clear
6:56 PM 43.0 °F - 39.0 °F 86% 29.94 in 10.0 mi Calm Calm - N/A   Clear
7:56 PM 41.0 °F - 39.0 °F 93% 29.96 in 10.0 mi Calm Calm - N/A   Mostly Cloudy
8:56 PM 39.9 °F - 39.0 °F 97% 29.97 in 10.0 mi Calm Calm - N/A   Mostly Cloudy
9:56 PM 39.9 °F - 39.0 °F 97% 29.99 in 10.0 mi Calm Calm - N/A   Overcast
10:47 PM 39.2 °F - 39.2 °F 100% 29.99 in 7.0 mi Calm Calm - N/A   Mostly Cloudy
10:56 PM 39.0 °F - 39.0 °F 100% 29.99 in 9.0 mi Calm Calm - N/A   Overcast
11:19 PM 39.2 °F - 39.2 °F 100% 30.00 in 9.0 mi Calm Calm - N/A   Overcast
11:49 PM 39.2 °F - 37.4 °F 93% 30.00 in 10.0 mi Calm Calm - N/A   Overcast
11:56 PM 39.0 °F - 37.9 °F 96% 30.00 in 10.0 mi Calm Calm - N/A   Overcast